Powrót do katalogu

STARLINK-4396

AktywnyŁącznośćVLEO
NORAD 53637·PAYLOAD·🇺🇸 United States

Wystrzelony Aug 28, 2022 z Cape Canaveral Space Force Station

Loading…

Następne Przeloty (najbliższe 24 godziny)

TLE

ŚwieżeSource: CelesTrak SupGP

Epoka: Sep 14, 2026, 20:41 UTC

1 53637C 22104BB  26257.86229167 -.00006980  00000+0 -19970-3 0  2576
2 53637  53.1580  88.3718 0001265  83.0035  72.0581 15.35401097    15

Śledź STARLINK-4396 w czasie rzeczywistym z AllMySat

Download on the App Store